Retour au catalogue

SL-12 R/B(2)

ActifGEO
NORAD 26939·ROCKET BODY·🇷🇺 Russia

Lancé Oct 6, 2001 depuis Baikonur Cosmodrome

Loading…

TLE

FraisSource: Space-Track

Époque: Aug 29, 2026, 21:58 UTC

1 26939U 01045D   26241.91528713  .00000105  00000-0  00000+0 0  9995
2 26939  13.9445  11.5149 0025288  31.2789 312.6322  1.00249947 91468

Suivez SL-12 R/B(2) en temps réel avec AllMySat

Download on the App Store